Satellite: FENGYUN1
Catalog number: 25730
Epoch time:      10176.47650484
Element set:    0075
Inclination:      098.7857 deg
RA of node:       141.2161 deg
Eccentricity:    0.0020883
Arg of perigee:   247.1287 deg
Mean anomaly:     112.7679 deg
Mean motion:   14.08184507 rev/day
Decay rate:      -4.83e-06 rev/day^2
Epoch rev:           57285
Checksum:              318

Satellite: OKEAN-0
Catalog number: 25860
Epoch time:      10176.56416955
Element set:    0030
Inclination:      097.8316 deg
RA of node:       148.9766 deg
Eccentricity:    0.0001839
Arg of perigee:   070.8276 deg
Mean anomaly:     289.3126 deg
Mean motion:   14.73645702 rev/day
Decay rate:        2.1e-07 rev/day^2
Epoch rev:           58813
Checksum:              315

Satellite: NOAA-10
Catalog number: 16969
Epoch time:      10176.63464985
Element set:    0111
Inclination:      098.6558 deg
RA of node:       205.5228 deg
Eccentricity:    0.0012146
Arg of perigee:   182.9932 deg
Mean anomaly:     177.1193 deg
Mean motion:   14.27419054 rev/day
Decay rate:      -1.17e-06 rev/day^2
Epoch rev:           23678
Checksum:              320

Satellite: NOAA-15
Catalog number: 25338
Epoch time:      10176.65098870
Element set:    0424
Inclination:      098.6178 deg
RA of node:       163.4229 deg
Eccentricity:    0.0011569
Arg of perigee:   053.7875 deg
Mean anomaly:     306.4369 deg
Mean motion:   14.24835812 rev/day
Decay rate:        7.1e-07 rev/day^2
Epoch rev:           62995
Checksum:              337

Satellite: NOAA-16
Catalog number: 26536
Epoch time:      10176.65537468
Element set:    0901
Inclination:      099.1697 deg
RA of node:       194.3239 deg
Eccentricity:    0.0009825
Arg of perigee:   317.0139 deg
Mean anomaly:     043.0244 deg
Mean motion:   14.12565811 rev/day
Decay rate:       1.53e-06 rev/day^2
Epoch rev:           50302
Checksum:              298

Satellite: NOAA-12
Catalog number: 21263
Epoch time:      10176.84331986
Element set:    0611
Inclination:      098.7646 deg
RA of node:       190.0009 deg
Eccentricity:    0.0012983
Arg of perigee:   137.7206 deg
Mean anomaly:     222.4971 deg
Mean motion:   14.25640421 rev/day
Decay rate:        5.6e-07 rev/day^2
Epoch rev:           99363
Checksum:              298

Satellite: NOAA-14
Catalog number: 23455
Epoch time:      10176.84690232
Element set:    0103
Inclination:      098.8782 deg
RA of node:       257.5303 deg
Eccentricity:    0.0008913
Arg of perigee:   206.6585 deg
Mean anomaly:     153.4138 deg
Mean motion:   14.13787886 rev/day
Decay rate:       -6.8e-07 rev/day^2
Epoch rev:           79872
Checksum:              334

Satellite: NOAA-17
Catalog number: 27453
Epoch time:      10176.84851709
Element set:    0900
Inclination:      098.4311 deg
RA of node:       226.9442 deg
Eccentricity:    0.0012777
Arg of perigee:   110.8536 deg
Mean anomaly:     249.3999 deg
Mean motion:   14.24167897 rev/day
Decay rate:       -5.0e-08 rev/day^2
Epoch rev:           41593
Checksum:              332

Satellite: NOAA-19
Catalog number: 33591
Epoch time:      10176.86818258
Element set:    0581
Inclination:      098.7879 deg
RA of node:       118.8046 deg
Eccentricity:    0.0013086
Arg of perigee:   265.4137 deg
Mean anomaly:     094.5519 deg
Mean motion:   14.11062206 rev/day
Decay rate:      -1.40e-06 rev/day^2
Epoch rev:           07113
Checksum:              312

Satellite: NOAA-18
Catalog number: 28654
Epoch time:      10176.87831524
Element set:    0384
Inclination:      098.9498 deg
RA of node:       123.1174 deg
Eccentricity:    0.0014947
Arg of perigee:   032.3916 deg
Mean anomaly:     327.8154 deg
Mean motion:   14.11365990 rev/day
Decay rate:      -1.47e-06 rev/day^2
Epoch rev:           26266
Checksum:              331

Satellite: RESURS
Catalog number: 25394
Epoch time:      10177.48099292
Element set:     537
Inclination:      098.3039 deg
RA of node:       195.0541 deg
Eccentricity:    0.0001140
Arg of perigee:   149.6058 deg
Mean anomaly:     210.5188 deg
Mean motion:   14.24203961 rev/day
Decay rate:        1.0e-08 rev/day^2
Epoch rev:           62167
Checksum:              284

Satellite: OKEAN-4
Catalog number: 23317
Epoch time:      10177.49898353
Element set:     268
Inclination:      082.5399 deg
RA of node:       345.1657 deg
Eccentricity:    0.0021077
Arg of perigee:   207.6212 deg
Mean anomaly:     152.3917 deg
Mean motion:   14.82829060 rev/day
Decay rate:       1.69e-06 rev/day^2
Epoch rev:           84783
Checksum:              329

Satellite: MET-2/21
Catalog number: 22782
Epoch time:      10177.61999970
Element set:     813
Inclination:      082.5482 deg
RA of node:       244.9574 deg
Eccentricity:    0.0022883
Arg of perigee:   020.5059 deg
Mean anomaly:     339.7022 deg
Mean motion:   13.83645906 rev/day
Decay rate:        7.7e-07 rev/day^2
Epoch rev:           84938
Checksum:              340

Satellite: MET-3/5
Catalog number: 21655
Epoch time:      10177.67629945
Element set:     847
Inclination:      082.5588 deg
RA of node:       301.9292 deg
Eccentricity:    0.0012784
Arg of perigee:   330.7808 deg
Mean anomaly:     029.2562 deg
Mean motion:   13.17025357 rev/day
Decay rate:        5.1e-07 rev/day^2
Epoch rev:           90692
Checksum:              326

/EX
SB KEPS @ AMSAT  $ORB10177.M
Orbital Elements  10177.MISC

HR AMSAT ORBITAL ELEMENTS FOR MANNED AND MISCELLANEOUS SATELLITES
FROM WA5QGD FORT WORTH,TX June 26, 2010
Send Subscribe/unsubscribe to KEPS at http://www.amsat.org/mailman/listinfo/keps
BID: ORB10177.M
TO ALL RADIO AMATEURS BT

Satellite: DRAGNSAT
Catalog number: 35690
Epoch time:      10076.22711312
Element set:     316
Inclination:      051.6170 deg
RA of node:       315.4586 deg
Eccentricity:    0.0004999
Arg of perigee:   310.9891 deg
Mean anomaly:     057.3269 deg
Mean motion:   16.42150010 rev/day
Decay rate:   5.715194e-02 rev/day^2
Epoch rev:            3656
Checksum:              289

Satellite: POLLUX
Catalog number: 35693
Epoch time:      10087.99866888
Element set:     352
Inclination:      051.6099 deg
RA of node:       254.5746 deg
Eccentricity:    0.0006270
Arg of perigee:   294.4866 deg
Mean anomaly:     097.5899 deg
Mean motion:   16.52338462 rev/day
Decay rate:  2.3496735e-01 rev/day^2
Epoch rev:            3839
Checksum:              384

Satellite: CO-66
Catalog number: 32791
Epoch time:      10176.22694704
Element set:    0699
Inclination:      097.8947 deg
RA of node:       240.8879 deg
Eccentricity:    0.0014955
Arg of perigee:   258.0188 deg
Mean anomaly:     101.9350 deg
Mean motion:   14.81677436 rev/day
Decay rate:       4.79e-06 rev/day^2
Epoch rev:           11664
Checksum:              359

Satellite: CO-58
Catalog number: 28895
Epoch time:      10176.68584118
Element set:     616
Inclination:      098.0131 deg
RA of node:       060.8821 deg
Eccentricity:    0.0016727
Arg of perigee:   257.6383 deg
Mean anomaly:     102.2967 deg
Mean motion:   14.59903806 rev/day
Decay rate:       1.32e-06 rev/day^2
Epoch rev:           24822
Checksum:              324

Satellite: MAST
Catalog number: 31126
Epoch time:      10176.75754232
Element set:    0899
Inclination:      097.9373 deg
RA of node:       218.3276 deg
Eccentricity:    0.0094226
Arg of perigee:   198.7093 deg
Mean anomaly:     161.0621 deg
Mean motion:   14.53596464 rev/day
Decay rate:       1.72e-06 rev/day^2
Epoch rev:           16930
Checksum:              318

Satellite: DO-64
Catalog number: 32789
Epoch time:      10176.82183942
Element set:    0718
Inclination:      097.9018 deg
RA of node:       242.0734 deg
Eccentricity:    0.0014329
Arg of perigee:   255.6671 deg
Mean anomaly:     104.2984 deg
Mean motion:   14.82186697 rev/day
Decay rate:       8.29e-06 rev/day^2
Epoch rev:           11678
Checksum:              346

Satellite: CP6
Catalog number: 35004
Epoch time:      10176.94805716
Element set:    0328
Inclination:      040.4598 deg
RA of node:       153.0009 deg
Eccentricity:    0.0019563
Arg of perigee:   091.0811 deg
Mean anomaly:     269.2268 deg
Mean motion:   15.46379686 rev/day
Decay rate:      6.904e-05 rev/day^2
Epoch rev:           06207
Checksum:              310

Satellite: AEROCUB3
Catalog number: 35005
Epoch time:      10176.97217937
Element set:    0372
Inclination:      040.4679 deg
RA of node:       149.9678 deg
Eccentricity:    0.0016444
Arg of perigee:   107.6024 deg
Mean anomaly:     252.6653 deg
Mean motion:   15.51791114 rev/day
Decay rate:     2.0983e-04 rev/day^2
Epoch rev:           06211
Checksum:              304

Satellite: TACSAT-3
Catalog number: 35001
Epoch time:      10176.98455324
Element set:    0320
Inclination:      040.4539 deg
RA of node:       161.2591 deg
Eccentricity:    0.0020474
Arg of perigee:   067.5897 deg
Mean anomaly:     292.7094 deg
Mean motion:   15.41858355 rev/day
Decay rate:      3.097e-05 rev/day^2
Epoch rev:           06199
Checksum:              312

Satellite: AAUSAT2
Catalog number: 32788
Epoch time:      10177.15135082
Element set:     700
Inclination:      097.8948 deg
RA of node:       241.9163 deg
Eccentricity:    0.0014066
Arg of perigee:   258.1388 deg
Mean anomaly:     101.8274 deg
Mean motion:   14.82038616 rev/day
Decay rate:       5.00e-06 rev/day^2
Epoch rev:           11683
Checksum:              296

Satellite: PHARMSAT
Catalog number: 35002
Epoch time:      10177.32383088
Element set:     302
Inclination:      040.4672 deg
RA of node:       157.1895 deg
Eccentricity:    0.0022768
Arg of perigee:   075.0759 deg
Mean anomaly:     285.2577 deg
Mean motion:   15.42381862 rev/day
Decay rate:      2.642e-05 rev/day^2
Epoch rev:            6206
Checksum:              295

